This demonstration page uses our WeatherBlox Daily Observations layout. Learn more.

Left ArrowRight Arrow

40.92945, -100.16068

Hourly Observations for November 4, 2019

Temp ( °F °C ) Dew Point ( °F °C ) Humidity (%) Winds ( mph kmh ) Pressure ( in mb ) Visibility ( mi km ) Precip ( " mm )
12:15 am 00:15 Clear 36 2.1 32 -0.2 85 85 W 7 11 30.09 1019 10 16.0934 0 0
12:35 am 00:35 Clear 37 2.7 32 0 83 83 W 8 13 30.08 1019 10 16.0934 0 0
12:55 am 00:55 Clear 37 3 32 0 81 81 W 7 11 30.09 1019 10 16.0934 0 0
1:15 am 01:15 Mostly Cloudy 37 3 32 0 81 81 WNW 7 11 30.1 1019 10 16.0934 0 0
1:35 am 01:35 Cloudy 38 3.5 33 0.4 80 80 WNW 6 9 30.09 1019 10 16.0934 0 0
1:55 am 01:55 Cloudy 39 3.7 33 0.5 80 80 W 7 11 30.09 1019 10 16.0934 0 0
2:15 am 02:15 Cloudy 39 3.8 33 0.7 80 80 W 5 7 30.09 1019 10 16.0934 0 0
2:35 am 02:35 Cloudy 39 3.8 34 1 82 82 WNW 6 9 30.1 1019 10 16.0934 0 0
2:55 am 02:55 Cloudy 40 4.4 34 1.1 79 79 WNW 6 9 30.09 1019 10 16.0934 0 0
3:15 am 03:15 Cloudy 39 4.1 34 1.2 82 82 NW 3 6 30.1 1019 10 16.0934 0 0
3:35 am 03:35 Cloudy 39 4 34 1.1 82 82 NNW 6 9 30.11 1020 10 16.0934 0 0
3:55 am 03:55 Cloudy 39 4 34 1.2 82 82 NW 7 11 30.11 1020 10 16.0934 0 0
4:15 am 04:15 Cloudy 39 3.8 34 1.2 83 83 NW 6 9 30.11 1020 10 16.0934 0 0
4:35 am 04:35 Cloudy 38 3.6 34 1.2 85 85 NW 5 7 30.11 1020 10 16.0934 0 0
4:55 am 04:55 Cloudy 38 3.5 34 1 84 84 W 3 6 30.11 1020 10 16.0934 0 0
5:15 am 05:15 Cloudy 38 3.3 34 1.1 86 86 W 6 9 30.12 1020 10 16.0934 0 0
5:35 am 05:35 Cloudy 38 3.5 34 1.2 85 85 W 7 11 30.12 1020 10 16.0934 0 0
5:55 am 05:55 Cloudy 39 3.7 35 1.4 85 85 W 5 7 30.13 1020 10 16.0934 0 0
6:15 am 06:15 Cloudy 38 3.6 35 1.6 87 87 W 3 6 30.12 1020 10 16.0934 0 0
6:35 am 06:35 Cloudy 38 3.5 35 1.7 88 88 NW 5 7 30.13 1020 10 16.0934 0 0
6:55 am 06:55 Cloudy with Drizzle 39 3.7 35 1.6 86 86 WNW 5 7 30.13 1020 10 16.0934 0 0
7:15 am 07:15 Cloudy 38 3.3 35 1.8 90 90 NW 5 7 30.14 1021 10 16.0934 0 0
7:35 am 07:35 Cloudy 38 3.3 35 1.6 89 89 NW 3 6 30.14 1021 10 16.0934 0 0
7:55 am 07:55 Cloudy 38 3.6 35 1.8 88 88 W 3 6 30.16 1021 10 16.0934 0 0
8:15 am 08:15 Cloudy with Light Rain 39 4.1 36 2.3 88 88 W 3 6 30.17 1022 10 16.0934 0 0
8:35 am 08:35 Cloudy 40 4.5 37 2.5 87 87 NW 3 6 30.16 1021 10 16.0934 0 0
8:55 am 08:55 Cloudy with Light Rain 41 5.1 37 2.7 85 85 NNW 6 9 30.17 1022 10 16.0934 0 0
9:15 am 09:15 Cloudy with Drizzle 42 5.4 38 3.3 86 86 N 10 17 30.17 1022 10 16.0934 0 0
9:35 am 09:35 Cloudy with Drizzle 41 5 38 3.1 88 88 N 10 17 30.18 1022 10 16.0934 0 0
9:55 am 09:55 Cloudy with Light Rain 41 5 38 3.3 89 89 NNE 12 19 30.18 1022 10 16.0934 0 0
10:15 am 10:15 Cloudy 41 5 38 3.5 90 90 N 12 19 30.19 1022 10 16.0934 0 0
10:35 am 10:35 Cloudy with Light Rain 41 4.9 38 3.5 91 91 NNE 12 19 30.2 1023 10 16.0934 0 0
10:55 am 10:55 Cloudy with Light Rain 40 4.3 37 2.6 89 89 NNE 14 22 30.22 1023 10 16.0934 0 0
11:15 am 11:15 Cloudy with Light Rain 39 3.9 35 1.5 85 85 N 10 17 30.23 1024 10 16.0934 0 0
11:35 am 11:35 Cloudy with Light Rain 38 3.6 35 1.7 88 88 N 15 24 30.23 1024 10 16.0934 0 0
11:55 am 11:55 Cloudy with Light Rain 39 3.8 36 2.1 89 89 NNE 9 15 30.22 1023 10 16.0934 0.01 0.254
12:15 pm 12:15 Cloudy with Light Rain 39 4 36 2 87 87 NNE 9 15 30.23 1024 10 16.0934 0 0
12:35 pm 12:35 Cloudy with Light Rain 39 4 35 1.9 86 86 N 7 11 30.21 1023 10 16.0934 0 0
12:55 pm 12:55 Cloudy with Light Rain 39 4 36 2.2 88 88 N 7 11 30.21 1023 10 16.0934 0 0
1:15 pm 13:15 Cloudy with Drizzle 39 4 36 2 87 87 N 6 9 30.21 1023 10 16.0934 0 0
1:35 pm 13:35 Cloudy 39 3.9 35 1.6 85 85 NNE 5 7 30.21 1023 10 16.0934 0 0
1:55 pm 13:55 Cloudy with Drizzle 39 3.8 34 1.2 83 83 N 6 9 30.2 1023 10 16.0934 0 0
2:15 pm 14:15 Cloudy with Rain 39 3.8 34 1.3 84 84 N 3 6 30.21 1023 10 16.0934 0 0
2:35 pm 14:35 Cloudy with Rain 39 3.7 34 1 83 83 N 3 6 30.21 1023 10 16.0934 0 0
2:55 pm 14:55 Cloudy with Drizzle 39 3.7 34 1.1 83 83 NNW 5 7 30.22 1023 10 16.0934 0 0
3:15 pm 15:15 Cloudy with Drizzle 39 3.9 34 1.2 83 83 NNW 5 7 30.23 1024 10 16.0934 0 0
3:35 pm 15:35 Cloudy with Light Rain 39 4 34 1.2 82 82 NNW 5 7 30.23 1024 10 16.0934 0 0
3:55 pm 15:55 Cloudy with Drizzle 39 3.7 34 0.9 82 82 Calm 30.23 1024 10 16.0934 0 0
4:15 pm 16:15 Cloudy with Drizzle 39 3.7 35 1.5 86 86 WNW 3 6 30.23 1024 10 16.0934 0 0
4:35 pm 16:35 Cloudy with Drizzle 38 3.5 34 1.1 84 84 Calm 30.23 1024 10 16.0934 0 0
4:55 pm 16:55 Cloudy with Drizzle 38 3.5 35 1.5 87 87 WSW 3 6 30.24 1024 10 16.0934 0 0
5:15 pm 17:15 Cloudy 38 3.5 35 1.8 89 89 WSW 3 6 30.24 1024 10 16.0934 0 0
5:35 pm 17:35 Cloudy with Drizzle 38 3.3 36 2 91 91 SSW 3 6 30.24 1024 10 16.0934 0 0
5:55 pm 17:55 Cloudy 38 3.1 36 2.1 93 93 WSW 3 6 30.26 1025 10 16.0934 0 0
6:15 pm 18:15 Cloudy with Light Rain 38 3.1 36 2.1 93 93 WSW 3 6 30.27 1025 10 16.0934 0 0
6:35 pm 18:35 Cloudy with Drizzle 37 3 36 2.3 95 95 Calm 30.27 1025 10 16.0934 0 0
6:55 pm 18:55 Cloudy with Drizzle 37 3 36 2.2 95 95 Calm 30.28 1025 10 16.0934 0 0
7:15 pm 19:15 Cloudy 37 2.7 36 2.1 96 96 Calm 30.29 1026 10 16.0934 0 0
7:35 pm 19:35 Mostly Cloudy 36 2.2 35 1.9 98 98 W 5 7 30.3 1026 10 16.0934 0 0
7:55 pm 19:55 Cloudy 36 2 35 1.6 97 97 W 3 6 30.3 1026 10 16.0934 0 0
8:15 pm 20:15 Cloudy 36 2 35 1.8 99 99 W 5 7 30.31 1026 10 16.0934 0 0
8:35 pm 20:35 Cloudy 36 2.2 36 2 99 99 Calm 30.31 1026 10 16.0934 0 0
8:55 pm 20:55 Cloudy 37 2.5 36 2.1 97 97 Calm 30.3 1026 10 16.0934 0 0
9:15 pm 21:15 Cloudy 37 2.6 36 2.2 97 97 Calm 30.31 1026 10 16.0934 0 0
9:35 pm 21:35 Cloudy 37 2.6 36 2.3 98 98 Calm 30.31 1026 10 16.0934 0 0
9:55 pm 21:55 Cloudy 37 2.6 36 2.3 98 98 Calm 30.31 1026 10 16.0934 0 0
10:15 pm 22:15 Cloudy 36 2.3 36 2.1 99 99 Calm 30.32 1027 10 16.0934 0 0
10:35 pm 22:35 Cloudy 36 2.3 36 2.2 99 99 Calm 30.32 1027 10 16.0934 0 0
10:55 pm 22:55 Cloudy 37 2.5 36 2.2 98 98 Calm 30.33 1027 10 16.0934 0 0
11:15 pm 23:15 Cloudy 36 2.3 36 2.1 99 99 Calm 30.32 1027 10 16.0934 0 0
11:35 pm 23:35 Cloudy 36 2.2 36 2.1 99 99 Calm 30.34 1027 10 16.0934 0 0
11:55 pm 23:55 Cloudy 36 2.2 36 2 99 99 Calm 30.33 1027 10 16.0934 0 0

Powered by AerisWeather